CW5439 Weather Reports


Display with metric or nautical units.
time (UTC)temp
F
wind
direction
speed
MPH
gust
MPH
rain 1hr
in
rain 24hr
in
rain mn
in
humidity
%
barometer
mb
20260906222206 64 219 7.0 21.0 0.00 0.06 0.06 88 1007.4
20260906221708 64 239 8.0 21.0 0.00 0.06 0.06 88 1007.3
20260906220705 63 200 9.0 21.0 0.00 0.06 0.06 87 1007.3
20260906220205 63 202 10.0 23.0 0.00 0.06 0.06 88 1007.2
20260906215704 63 216 10.0 23.0 0.00 0.06 0.06 88 1007.2
20260906214205 63 163 8.0 18.0 0.00 0.06 0.06 87 1007.4
20260906213705 63 225 9.0 18.0 0.00 0.06 0.06 87 1007.3
20260906213204 63 200 9.0 22.0 0.00 0.06 0.06 87 1007.3
20260906212705 63 198 10.0 22.0 0.00 0.06 0.06 87 1007.3
20260906212206 63 198 10.0 22.0 0.00 0.06 0.06 87 1007.3
20260906211705 63 215 10.0 23.0 0.00 0.06 0.06 87 1007.3
20260906211204 63 202 10.0 23.0 0.00 0.06 0.06 87 1007.2
20260906210705 63 200 10.0 23.0 0.00 0.06 0.06 86 1007.2
20260906210205 63 212 10.0 22.0 0.00 0.06 0.06 86 1007.2
20260906205705 63 206 10.0 22.0 0.00 0.06 0.06 86 1007.2
20260906205206 63 215 11.0 22.0 0.00 0.06 0.06 86 1007.4
20260906204705 63 211 10.0 21.0 0.00 0.06 0.06 86 1007.5
20260906204205 63 205 10.0 21.0 0.00 0.06 0.06 86 1007.6
20260906203205 63 205 9.0 21.0 0.00 0.06 0.06 86 1007.6
20260906202705 62 184 8.0 21.0 0.00 0.06 0.06 86 1007.7
20260906202206 62 200 9.0 22.0 0.00 0.06 0.06 86 1007.6
20260906201705 62 203 10.0 22.0 0.00 0.06 0.06 86 1007.6
20260906200705 62 198 10.0 21.0 0.00 0.06 0.06 85 1007.6
20260906200209 63 239 10.0 21.0 0.00 0.06 0.06 84 1007.5
20260906195704 63 187 10.0 20.0 0.00 0.06 0.06 84 1007.7
20260906195206 63 205 11.0 20.0 0.00 0.06 0.06 83 1007.8
20260906194705 63 184 10.0 22.0 0.00 0.06 0.06 83 1007.8
20260906194205 63 239 8.0 24.0 0.00 0.06 0.06 82 1008.0
20260906192704 63 205 9.0 25.0 0.00 0.06 0.06 81 1008.1
20260906192205 63 179 10.0 25.0 0.00 0.06 0.06 81 1008.0
20260906191705 63 182 11.0 22.0 0.00 0.06 0.06 80 1008.0
20260906190732 64 204 12.0 22.0 0.00 0.06 0.06 80 1008.1
20260906190205 64 169 11.0 22.0 0.00 0.06 0.06 80 1008.1
20260906185704 64 204 11.0 26.0 0.00 0.06 0.06 80 1008.1
20260906185206 64 232 10.0 26.0 0.00 0.06 0.06 80 1008.1
20260906184705 64 244 11.0 26.0 0.00 0.06 0.06 79 1008.3
20260906183704 64 227 11.0 21.0 0.00 0.06 0.06 79 1008.3
20260906183205 64 215 9.0 22.0 0.00 0.06 0.06 80 1008.2
20260906182205 64 165 10.0 22.0 0.00 0.06 0.06 80 1008.3
20260906181705 64 187 10.0 20.0 0.00 0.06 0.06 80 1008.3
20260906180704 64 155 8.0 17.0 0.00 0.06 0.06 80 1008.3
20260906180205 64 211 7.0 17.0 0.00 0.06 0.06 80 1008.3
20260906175703 64 194 9.0 17.0 0.00 0.06 0.06 80 1008.4
20260906175205 64 207 9.0 14.0 0.00 0.06 0.06 80 1008.3
20260906174705 64 227 8.0 16.0 0.00 0.06 0.06 80 1008.3
20260906174205 64 244 7.0 17.0 0.00 0.06 0.06 79 1008.2
20260906173705 64 226 7.0 17.0 0.00 0.06 0.06 79 1008.3
20260906172705 64 236 6.0 15.0 0.00 0.06 0.06 79 1008.3
20260906172205 64 222 6.0 23.0 0.00 0.06 0.06 78 1008.4
20260906171705 64 261 9.0 29.0 0.00 0.06 0.06 78 1008.5
20260906171205 64 207 10.0 29.0 0.00 0.06 0.06 78 1008.5
20260906170705 64 218 10.0 20.0 0.00 0.06 0.06 78 1008.6
20260906170205 64 181 9.0 18.0 0.00 0.06 0.06 78 1008.6
20260906165205 64 213 7.0 18.0 0.00 0.06 0.06 78 1008.7
20260906164705 64 227 6.0 22.0 0.00 0.06 0.06 78 1008.8
20260906164205 64 209 8.0 22.0 0.00 0.06 0.06 78 1008.8
20260906163707 64 272 8.0 26.0 0.00 0.06 0.06 78 1008.9
20260906163205 64 194 7.0 26.0 0.00 0.06 0.06 77 1009.0
20260906162705 64 263 7.0 26.0 0.00 0.06 0.06 78 1009.1
20260906162205 64 238 7.0 20.0 0.00 0.06 0.06 78 1009.1
20260906161709 64 192 8.0 20.0 0.00 0.06 0.06 77 1009.1
20260906161206 64 175 8.0 20.0 0.00 0.06 0.06 77 1009.0
20260906160705 64 194 7.0 19.0 0.00 0.06 0.06 77 1009.3
20260906160204 64 219 7.0 20.0 0.00 0.06 0.06 77 1009.4
20260906155705 64 213 9.0 20.0 0.00 0.06 0.06 77 1009.4
20260906155205 64 195 9.0 18.0 0.00 0.06 0.06 76 1009.6
20260906154705 64 200 8.0 18.0 0.00 0.06 0.06 76 1009.6
20260906154205 64 199 8.0 16.0 0.00 0.06 0.06 76 1009.7
20260906153705 64 181 7.0 16.0 0.00 0.06 0.06 75 1009.7
20260906153205 65 200 7.0 19.0 0.00 0.06 0.06 75 1009.9
20260906152705 65 253 7.0 19.0 0.00 0.06 0.06 75 1010.1
20260906152205 65 207 6.0 20.0 0.00 0.06 0.06 74 1010.2
20260906151705 65 211 7.0 20.0 0.00 0.06 0.06 74 1010.3
20260906150205 65 219 6.0 15.0 0.00 0.06 0.06 74 1010.1
20260906145205 65 223 7.0 15.0 0.00 0.06 0.06 74 1010.3
20260906144704 65 239 8.0 15.0 0.00 0.06 0.06 74 1010.4
20260906144205 65 185 7.0 15.0 0.00 0.06 0.06 74 1010.5
20260906143705 65 231 7.0 18.0 0.00 0.06 0.06 74 1010.5
20260906142205 65 252 9.0 20.0 0.00 0.06 0.06 74 1010.6
20260906141705 65 182 9.0 20.0 0.00 0.06 0.06 74 1010.4
20260906141205 65 224 7.0 20.0 0.00 0.06 0.06 74 1010.4
20260906140707 65 192 8.0 20.0 0.00 0.06 0.06 75 1010.3
20260906140206 65 197 10.0 20.0 0.00 0.06 0.06 75 1010.4
20260906135705 65 222 10.0 20.0 0.00 0.06 0.06 74 1010.4
20260906135205 65 203 8.0 19.0 0.00 0.06 0.06 75 1010.6
20260906134705 65 209 7.0 19.0 0.00 0.06 0.06 77 1010.7
20260906132705 66 222 10.0 21.0 0.00 0.06 0.06 77 1010.9
20260906132205 66 182 10.0 21.0 0.00 0.06 0.06 78 1010.8
20260906131705 66 253 10.0 23.0 0.00 0.06 0.06 79 1010.9
20260906131223 66 215 12.0 23.0 0.00 0.06 0.06 80 1011.0
20260906130705 66 219 13.0 23.0 0.00 0.06 0.06 80 1011.0
20260906125704 65 198 9.0 19.0 0.00 0.06 0.06 80 1011.1
20260906125205 66 215 10.0 23.0 0.00 0.06 0.06 82 1011.1
20260906124705 65 193 11.0 23.0 0.00 0.06 0.06 81 1011.2
20260906124205 65 165 12.0 23.0 0.00 0.06 0.06 82 1011.2
20260906123705 65 217 12.0 24.0 0.00 0.06 0.06 82 1011.3
20260906123204 65 204 12.0 24.0 0.00 0.06 0.06 82 1011.3
20260906122705 65 213 10.0 23.0 0.00 0.06 0.06 83 1011.4
20260906122205 65 184 8.0 21.0 0.00 0.06 0.06 84 1011.6
20260906121705 65 267 8.0 17.0 0.00 0.06 0.06 85 1011.6
20260906121205 64 190 7.0 17.0 0.00 0.06 0.06 85 1011.7
20260906120704 64 183 8.0 18.0 0.00 0.06 0.06 85 1011.7
20260906120205 64 242 10.0 18.0 0.00 0.06 0.06 85 1011.7
20260906115705 64 204 9.0 18.0 0.00 0.06 0.06 85 1011.7
20260906115205 64 217 8.0 19.0 0.00 0.06 0.06 85 1011.8
20260906114706 64 209 8.0 19.0 0.00 0.06 0.06 85 1011.7
20260906114205 64 211 9.0 19.0 0.00 0.06 0.06 85 1011.7
20260906113732 64 209 10.0 18.0 0.00 0.06 0.06 85 1011.7
20260906113205 64 190 9.0 19.0 0.00 0.06 0.06 85 1011.7
20260906112705 64 243 10.0 19.0 0.00 0.06 0.06 86 1011.7
20260906111205 64 208 10.0 24.0 0.00 0.06 0.06 86 1011.9
20260906110705 63 215 10.0 24.0 0.00 0.06 0.06 86 1012.0
20260906110205 63 196 10.0 24.0 0.00 0.06 0.06 86 1012.0
20260906105705 63 213 10.0 25.0 0.00 0.06 0.06 88 1012.1
20260906105206 62 218 10.0 25.0 0.00 0.06 0.06 88 1012.2
20260906104705 62 224 11.0 25.0 0.00 0.06 0.06 88 1012.3
20260906104205 62 200 12.0 20.0 0.00 0.06 0.06 88 1012.5
20260906103706 63 223 11.0 27.0 0.00 0.06 0.06 89 1012.4
20260906103205 63 177 11.0 27.0 0.00 0.06 0.06 89 1012.5
20260906102705 63 215 12.0 27.0 0.01 0.06 0.06 89 1012.5
20260906102206 63 202 11.0 26.0 0.01 0.06 0.06 89 1012.5
20260906101705 63 201 10.0 27.0 0.01 0.06 0.06 89 1012.5
20260906101204 63 295 10.0 27.0 0.01 0.06 0.06 90 1012.5
20260906095705 61 205 9.0 23.0 0.01 0.06 0.06 94 1012.7
20260906095205 61 184 7.0 15.0 0.02 0.06 0.06 94 1012.8
20260906094705 60 194 6.0 14.0 0.02 0.06 0.06 95 1012.9
20260906094205 60 225 6.0 14.0 0.02 0.06 0.06 95 1013.0
20260906093705 60 234 6.0 13.0 0.02 0.06 0.06 95 1013.0
20260906093205 60 140 5.0 12.0 0.01 0.06 0.06 95 1013.2
20260906092705 60 259 3.0 11.0 0.01 0.06 0.06 95 1013.2
20260906092205 60 229 3.0 8.0 0.01 0.06 0.06 95 1013.3
20260906091705 59 192 2.0 6.0 0.01 0.06 0.06 95 1013.3
20260906091205 59 197 3.0 6.0 0.01 0.06 0.06 95 1013.3
20260906090703 59 182 2.0 6.0 0.01 0.06 0.06 95 1013.5
20260906090205 58 198 2.0 5.0 0.01 0.06 0.06 95 1013.5
20260906085705 58 196 2.0 5.0 0.01 0.06 0.06 95 1013.6
20260906085234 58 202 2.0 8.0 0.00 0.05 0.05 95 1013.7
20260906084726 58 215 3.0 8.0 0.00 0.05 0.05 94 1013.8
20260906083706 58 215 4.0 10.0 0.00 0.05 0.05 94 1013.9
20260906083205 58 219 5.0 11.0 0.00 0.05 0.05 94 1014.0
20260906082705 58 216 4.0 12.0 0.00 0.05 0.05 94 1014.0
20260906082205 58 212 4.0 12.0 0.00 0.05 0.05 94 1014.1
20260906081705 58 212 4.0 12.0 0.00 0.05 0.05 95 1014.1
20260906081205 58 217 4.0 12.0 0.00 0.05 0.05 95 1014.1
20260906080704 58 235 4.0 12.0 0.00 0.05 0.05 95 1014.1
20260906080205 58 201 4.0 12.0 0.00 0.05 0.05 95 1014.1
20260906075705 57 211 4.0 10.0 0.00 0.05 0.05 95 1014.1
20260906075207 57 165 4.0 10.0 0.00 0.05 0.05 95 1014.2
20260906074705 57 215 5.0 10.0 0.00 0.05 0.05 95 1014.3
20260906073705 57 220 3.0 9.0 0.00 0.05 0.05 95 1014.4
20260906073205 57 212 3.0 8.0 0.00 0.05 0.05 94 1014.5
20260906072705 56 192 3.0 8.0 0.00 0.05 0.05 94 1014.5
20260906072206 56 225 3.0 7.0 0.00 0.05 0.05 94 1014.5
20260906071705 56 202 3.0 6.0 0.00 0.05 0.05 94 1014.5
20260906070703 56 205 3.0 6.0 0.00 0.05 0.05 94 1014.6
20260906070205 56 229 2.0 6.0 0.00 0.05 0.05 94 1014.6
20260906065705 55 217 1.0 6.0 0.00 0.05 0.05 94 1014.6
20260906064207 55 204 1.0 6.0 0.01 0.05 0.05 94 1014.6
20260906063705 54 162 0.0 1.0 0.01 0.05 0.05 93 1014.6
20260906062705 54 102 0.0 4.0 0.01 0.05 0.05 93 1014.7
20260906062205 54 103 1.0 4.0 0.01 0.05 0.05 93 1014.8
20260906061705 54 103 2.0 6.0 0.01 0.05 0.05 93 1014.8
20260906061232 54 98 2.0 6.0 0.01 0.05 0.05 93 1014.9
20260906060704 54 109 3.0 6.0 0.01 0.05 0.05 93 1014.9
20260906060205 54 96 3.0 6.0 0.01 0.05 0.05 93 1015.0
20260906055205 54 81 2.0 6.0 0.01 0.04 0.04 93 1015.1
20260906054705 54 99 3.0 6.0 0.01 0.04 0.04 93 1015.3
20260906054205 54 115 2.0 6.0 0.01 0.04 0.04 92 1015.3
20260906053705 54 126 2.0 4.0 0.01 0.04 0.04 92 1015.4
20260906053205 54 117 2.0 4.0 0.01 0.04 0.04 92 1015.4
20260906052706 54 121 1.0 6.0 0.01 0.04 0.04 92 1015.5
20260906052205 54 114 2.0 6.0 0.01 0.04 0.04 92 1015.5
20260906051704 54 130 2.0 6.0 0.02 0.04 0.04 92 1015.4
20260906051232 54 115 1.0 5.0 0.02 0.04 0.04 92 1015.5
20260906050705 54 122 1.0 4.0 0.02 0.04 0.04 91 1015.6
20260906045705 54 76 1.0 4.0 0.01 0.03 0.03 91 1015.6
20260906045206 54 94 1.0 4.0 0.01 0.03 0.03 91 1015.8
20260906043705 54 111 1.0 4.0 0.02 0.03 0.03 91 1015.9
20260906043205 54 126 1.0 2.0 0.02 0.03 0.03 90 1015.9
20260906042705 54 137 0.0 3.0 0.03 0.03 0.03 90 1016.0
20260906041705 54 137 1.0 3.0 0.02 0.02 0.02 90 1016.2
20260906041231 54 113 0.0 3.0 0.02 0.02 0.02 90 1016.2
20260906040704 54 127 0.0 4.0 0.02 0.02 0.02 90 1016.4
20260906040205 54 159 1.0 5.0 0.02 0.02 0.02 89 1016.5
20260906035705 54 197 1.0 6.0 0.02 0.02 0.02 89 1016.5
20260906035205 54 163 2.0 7.0 0.02 0.02 0.02 89 1016.7
20260906034205 54 167 3.0 6.0 0.02 0.02 0.02 88 1016.8
20260906033205 54 173 2.0 5.0 0.01 0.01 0.01 87 1017.1
20260906032705 54 196 2.0 4.0 0.00 0.00 0.00 87 1017.2
20260906032208 54 194 2.0 4.0 0.00 0.00 0.00 87 1017.3
20260906031710 54 188 2.0 6.0 0.00 0.00 0.00 87 1017.5
20260906031206 54 207 2.0 6.0 0.00 0.00 0.00 87 1017.5
20260906030705 54 207 2.0 6.0 0.00 0.00 0.00 87 1017.5
20260906030223 54 155 2.0 6.0 0.00 0.00 0.00 87 1017.4
20260906025705 54 195 2.0 10.0 0.00 0.00 0.00 87 1017.5
20260906025206 54 186 3.0 10.0 0.00 0.00 0.00 87 1017.6
20260906023705 54 169 2.0 7.0 0.00 0.00 0.00 88 1017.8
20260906023214 54 205 2.0 7.0 0.00 0.00 0.00 88 1017.9
20260906022705 54 185 2.0 8.0 0.00 0.00 0.00 88 1017.9
20260906022226 54 131 2.0 8.0 0.00 0.00 0.00 88 1017.9
20260906021705 54 144 1.0 5.0 0.00 0.00 0.00 88 1018.2
20260906020705 54 145 2.0 7.0 0.00 0.00 0.00 88 1018.3
20260906020205 54 138 2.0 7.0 0.00 0.00 0.00 88 1018.4
20260906015705 54 174 2.0 7.0 0.00 0.00 0.00 88 1018.4
20260906015205 54 206 2.0 5.0 0.00 0.00 0.00 88 1018.4
20260906014206 54 205 2.0 5.0 0.00 0.00 0.00 88 1018.7
20260906013705 54 219 2.0 5.0 0.00 0.00 0.00 88 1018.8
20260906013205 54 205 2.0 4.0 0.00 0.00 0.00 88 1018.9
20260906012206 54 193 1.0 6.0 0.00 0.00 0.00 88 1019.1
20260906011705 54 227 2.0 6.0 0.00 0.00 0.00 88 1019.2
20260906010705 54 182 2.0 7.0 0.00 0.00 0.00 88 1019.1
20260906010205 54 200 3.0 8.0 0.00 0.00 0.00 88 1019.1
20260906005704 54 195 3.0 8.0 0.00 0.00 0.00 88 1019.1
20260906005205 54 211 3.0 8.0 0.00 0.00 0.00 88 1019.3
20260906004705 55 207 3.0 7.0 0.00 0.00 0.00 88 1019.3
20260906004205 54 213 4.0 7.0 0.00 0.00 0.00 87 1019.3
20260906003205 54 202 3.0 7.0 0.00 0.00 0.00 87 1019.5
20260906002206 55 211 2.0 5.0 0.00 0.00 0.00 87 1019.7
20260906001705 55 205 2.0 6.0 0.00 0.00 0.00 87 1019.6
20260906001205 54 160 3.0 6.0 0.00 0.00 0.00 87 1019.6
20260906000705 54 207 3.0 6.0 0.00 0.00 0.00 87 1019.6
20260906000205 54 169 3.0 6.0 0.00 0.00 0.00 87 1019.8
20260905235704 54 173 3.0 6.0 0.00 0.00 0.00 87 1019.9
20260905235205 54 171 2.0 6.0 0.00 0.00 0.00 87 1019.9
20260905234705 54 186 2.0 6.0 0.00 0.00 0.00 87 1020.0
20260905234208 54 175 2.0 5.0 0.00 0.00 0.00 87 1020.0
20260905232705 55 184 1.0 5.0 0.00 0.00 0.00 87 1020.2
20260905232206 55 198 2.0 6.0 0.00 0.00 0.00 87 1020.3
20260905231705 55 175 2.0 6.0 0.00 0.00 0.00 87 1020.4
20260905231205 55 167 2.0 7.0 0.00 0.00 0.00 86 1020.3
20260905230705 55 186 3.0 7.0 0.00 0.00 0.00 86 1020.4
20260905230205 55 196 3.0 6.0 0.00 0.00 0.00 86 1020.4
20260905225705 55 200 2.0 5.0 0.00 0.00 0.00 86 1020.4
20260905224705 55 184 2.0 4.0 0.00 0.00 0.00 87 1020.4
20260905224205 56 198 1.0 5.0 0.00 0.00 0.00 87 1020.6
20260905223705 55 202 1.0 5.0 0.00 0.00 0.00 87 1020.6
20260905223205 55 178 1.0 5.0 0.00 0.00 0.00 87 1020.6
20260905222704 55 186 1.0 4.0 0.00 0.00 0.00 87 1020.7